Regional Weather Roundup
Issued by NWS Northern Indiana

Home | Current Version | Previous Version | Text Only | Print | Product List | Glossary On
Versions: 1 2 3 4 5 6 7 8 9 10 11 12 13 14 15 16 17 18 19 20 21 22 23 24 25 26 27 28 29 30 31 32 33 34 35 36 37 38 39 40 41 42 43 44 45 46 47 48 49 50
000
ASUS43 KIWX 300410
RWRIWX

KIWX WEATHER ROUNDUP
NATIONAL WEATHER SERVICE NORTHERN INDIANA
1200 AM EDT TUE JUN 30 2015

NOTE: "FAIR" INDICATES FEW OR NO CLOUDS BELOW 12,000 FEET WITH NO
SIGNIFICANT WEATHER AND/OR OBSTRUCTIONS TO VISIBILITY.

* THESE STATIONS ARE NOT UNDER NWS QUALITY CONTROL. THEY ALSO MAY NOT
  REPORT WEATHER SUCH AS PRECIPITATION OR FOG.

INZ001>027-300500-
NORTHERN INDIANA

CITY           SKY/WX    TMP DP  RH WIND       PRES   REMARKS
GARY*          CLEAR     66  66  99 CALM      29.81S FOG
VALPARAISO     MOCLDY    63  61  93 E3        29.82S
MICHIGAN CITY* MOCLDY    63  63 100 CALM      29.82F
LAPORTE*       CLOUDY    64  64 100 CALM      29.83S
KNOX*          PTCLDY    61  61 100 CALM      29.82S
SOUTH BEND     CLEAR     63  59  87 SE6       29.83S
GOSHEN         CLEAR     59  57  93 CALM      29.83S FOG
MONTICELLO*    CLOUDY    65  65 100 S3        29.82S
LOGANSPORT*    CLEAR     61  59  94 CALM      29.83F
ROCHESTER*     CLEAR     64  64 100 S3        29.83F
WARSAW*          N/A     55  55 100 CALM      29.83S FOG
ANGOLA*        CLOUDY    63  52  67 CALM      29.85R
FORT WAYNE     PTCLDY    61  59  93 CALM      29.84S
HUNTINGTON*    CLEAR     60  59  96 CALM      29.83S
PERU/GRISSOM   CLEAR     64  62  94 SE5       29.82F
MARION*        PTCLDY    62  61  96 CALM      29.84F

$$
INZ028>050-300500-
CENTRAL INDIANA

CITY           SKY/WX    TMP DP  RH WIND       PRES   REMARKS
LAFAYETTE      FOG       63  62  97 W3        29.82F VSB 1/4
KOKOMO*        CLEAR     63  61  94 CALM      29.83S
MUNCIE*        CLOUDY    65  62  90 E3        29.84S
INDIANAPOLIS   MOCLDY    66  62  87 SW7       29.82F

$$
MIZ043>046-050>051-056>058-064>065-071>073-077>080-300500-
SOUTHWEST LOWER MICHIGAN

CITY           SKY/WX    TMP DP  RH WIND       PRES   REMARKS
BATTLE CREEK   CLOUDY    66  58  75 S3        29.84F
BENTON HARBOR  CLEAR     61  58  90 SE6       29.81S
COLDWATER*     CLOUDY    62  57  84 E3        29.82F
HILLSDALE*     CLOUDY    63  63 100 CALM      29.84F
HOLLAND        CLEAR     61  57  87 SE6       29.82S
GRAND RAPIDS   PTCLDY    60  57  89 S5        29.83S
KALAMAZOO      CLOUDY    65  58  78 S5        29.83F
STURGIS*       CLOUDY    63  59  88 CALM      29.83F
THREE RIVERS*  CLOUDY    63  57  81 SE3       29.83F

$$
OHZ001>008-015>018-024>025-300500-
NORTHWEST OHIO

CITY           SKY/WX    TMP DP  RH WIND       PRES   REMARKS
DEFIANCE       CLOUDY    63  60  90 CALM      29.83F
FINDLAY        CLOUDY    64  61  90 CALM      29.82S
TOLEDO EXPRESS CLOUDY    62  59  90 CALM      29.82F
TOLEDO METCALF CLOUDY    64  58  80 SE3       29.84S
LIMA           CLOUDY    63  61  93 CALM      29.83S

$$
AND FOR LAKE MICHIGAN COASTAL AND OPEN LAKE BUOY OBSERVATIONS

STATION/POSITION TEMP    WIND        PRES    VSBY  WAVE
                 AIR SEA DIR/SP/G                  HT/PER
                 (F)     (DEG/KT/KT) (MB)    (MI)  (FT/S)
CALUMET HARBOR    66      CALM  /  2   N/A
MICHIGAN CITY     66     120/  8/ 11   N/A
BURNS HARBOR      68     170/  6/  9 1010.2R
SAINT JOSEPH      63     170/  2/  4 1010.5S
4 MI NW BRIDGMAN  64 64                N/A           1
MICHIGAN CITY     65 65  170/  6/ 10   N/A           1

$$
&&


USA.gov is the U.S. government's official web portal to all federal, state and local government web resources and services.